Jackson, KY

3:21 AM EST on February 20, 2018 (GMT -0500)
Carroll

Weather History for KJKL - January, 2014

Change the Weather History Date:

Thursday, January 2, 2014

  Actual Average Record
Temperature  
Mean Temperature 27 °F 35 °F  
Max Temperature 40 °F 43 °F 70 °F (2000)
Min Temperature 13 °F 27 °F 0 °F (2018)
Degree Days  
Heating Degree Days 38 30  
Month to date heating degree days 63 60  
Since 1 July heating degree days 1708 1694  
Cooling Degree Days 0 0  
Month to date cooling degree days 0 0  
Year to date cooling degree days 0 0  
Moisture  
Dew Point 23 °F    
Average Humidity 66    
Maximum Humidity 92    
Minimum Humidity 40    
Precipitation  
Precipitation 0.29 in 0.11 in 1.54 in (2004)
Month to date precipitation 0.29 0.23  
Year to date precipitation 0.29 0.23  
Snow  
Snow 1.30 in 0.20 in 2.40 in (2008)
Month to date snowfall 1.3 0.4  
Since 1 July snowfall 5.6 5.9  
Snow Depth 0.00 in    
Sea Level Pressure  
Sea Level Pressure 29.90 in    
Wind  
Wind Speed 8 mph (WNW)    
Max Wind Speed 21 mph    
Max Gust Speed 30 mph    
Visibility 4 miles    
Events Fog , Rain , Snow    
T = Trace of Precipitation, MM = Missing Value Source: NWS Daily Summary

Daily Weather History Graph

Daily Weather History Graph

Search for Another Location

Airport or City:

Trip Planner

Search our weather history database for the weather conditions in past years. The results will help you decide how hot, cold, wet, or windy it might be!

Date:

Astronomy

Jan. 02, 2014 Rise Set
Actual Time 7:48 AM EST 5:26 PM EST
Civil Twilight 7:19 AM EST 5:55 PM EST
Nautical Twilight 6:46 AM EST 6:28 PM EST
Astronomical Twilight 6:14 AM EST 7:00 PM EST
Moon 8:31 AM EST (1/2) 7:19 PM EST (1/2)
Length of Visible Light 10h 36m
Length of Day
9h 38m
New Moon, 2% of the Moon is Illuminated
Jan 2
New Moon
Jan 7
First Quarter
Jan 15
Full
Jan 24
Last Quarter
Jan 30
New

Hourly Weather History & Observations

Time (EST) Temp. Windchill Dew Point Humidity Pressure Visibility Wind Dir Wind Speed Gust Speed Precip Events Conditions
12:53 AM 37.9 °F 35.5 °F 18.0 °F 45% 30.00 in 10.0 mi SSE 3.5 mph - N/A   Clear
1:53 AM 37.9 °F - 19.9 °F 48% 29.98 in 10.0 mi Calm Calm - N/A   Scattered Clouds
2:53 AM 37.9 °F 34.4 °F 21.9 °F 53% 29.98 in 10.0 mi SW 4.6 mph - N/A   Overcast
3:53 AM 37.9 °F - 21.9 °F 53% 29.95 in 10.0 mi Calm Calm - N/A   Overcast
4:14 AM 37.0 °F - 23.0 °F 57% 29.94 in 10.0 mi Calm Calm - N/A   Overcast
4:53 AM 37.9 °F 35.5 °F 24.1 °F 57% 29.93 in 10.0 mi Variable 3.5 mph - N/A   Overcast
5:48 AM 35.6 °F 32.8 °F 30.2 °F 81% 29.89 in 10.0 mi SSW 3.5 mph - 0.01 in Rain Light Rain
5:53 AM 36.0 °F - 28.9 °F 76% 29.91 in 10.0 mi Calm Calm - 0.01 in Rain Light Rain
6:53 AM 36.0 °F 32.1 °F 30.0 °F 79% 29.87 in 10.0 mi SSE 4.6 mph - 0.01 in   Overcast
7:40 AM 37.0 °F 34.5 °F 32.0 °F 82% 29.84 in 10.0 mi SSW 3.5 mph - 0.00 in   Overcast
7:53 AM 37.0 °F 34.5 °F 32.0 °F 82% 29.85 in 10.0 mi SSW 3.5 mph - 0.00 in   Overcast
8:53 AM 39.0 °F - 34.0 °F 82% 29.81 in 10.0 mi Calm Calm - 0.00 in Rain Light Rain
9:45 AM 37.9 °F - 36.0 °F 93% 29.79 in 1.8 mi Calm Calm - 0.01 in Rain Light Rain
9:48 AM 37.4 °F - 35.6 °F 93% 29.78 in 1.5 mi Calm Calm - 0.01 in Rain Light Rain
9:51 AM 37.4 °F - 35.6 °F 93% 29.77 in 1.8 mi Calm Calm - 0.01 in Rain Light Rain
9:53 AM 37.9 °F 35.5 °F 36.0 °F 93% 29.79 in 1.8 mi Variable 3.5 mph - 0.01 in Rain Light Rain
10:00 AM 39.0 °F 36.8 °F 37.0 °F 93% 29.78 in 3.0 mi SW 3.5 mph - 0.00 in   Overcast
10:29 AM 37.9 °F - 36.0 °F 93% 29.78 in 3.0 mi Calm Calm - 0.00 in   Overcast
10:31 AM 37.9 °F - 36.0 °F 93% 29.78 in 2.5 mi Calm Calm - 0.00 in   Overcast
10:36 AM 37.9 °F - 36.0 °F 93% 29.78 in 1.5 mi Calm Calm - 0.00 in   Overcast
10:53 AM 39.0 °F 35.7 °F 37.0 °F 93% 29.79 in 1.0 mi SW 4.6 mph - 0.01 in Rain Light Rain
11:02 AM 39.0 °F 36.8 °F 37.0 °F 93% 29.77 in 0.2 mi SW 3.5 mph - 0.00 in Fog , Rain Light Rain
11:53 AM 39.9 °F 35.8 °F 37.9 °F 93% 29.75 in 1.2 mi Variable 5.8 mph - 0.04 in Rain Light Rain
12:08 PM 39.0 °F 33.4 °F 37.9 °F 96% 29.73 in 2.5 mi WSW 8.1 mph - 0.01 in Rain Light Rain
12:15 PM 39.0 °F 34.0 °F 37.9 °F 96% 29.73 in 5.0 mi Variable 6.9 mph 19.6 mph 0.01 in Rain Light Rain
12:53 PM 37.9 °F 29.6 °F 36.0 °F 93% 29.74 in 3.0 mi West 13.8 mph 19.6 mph 0.04 in Rain Rain
1:37 PM 37.0 °F 30.4 °F 34.0 °F 89% 29.73 in 9.0 mi WNW 9.2 mph 19.6 mph 0.04 in Rain Light Rain
1:53 PM 36.0 °F 29.6 °F 34.0 °F 93% 29.76 in 5.0 mi West 8.1 mph 19.6 mph 0.05 in Rain Light Rain
2:18 PM 35.1 °F 27.4 °F 33.1 °F 92% 29.74 in 6.0 mi West 10.4 mph 17.3 mph 0.02 in Snow Light Snow
2:44 PM 35.1 °F 27.9 °F 32.0 °F 89% 29.75 in 7.0 mi West 9.2 mph 18.4 mph 0.03 in Snow Light Snow
2:53 PM 34.0 °F 25.5 °F 32.0 °F 92% 29.77 in 5.0 mi West 11.5 mph 19.6 mph 0.03 in Snow Light Snow
3:04 PM 34.0 °F 28.0 °F 30.9 °F 89% 29.76 in 2.0 mi Variable 6.9 mph 18.4 mph 0.00 in Snow Light Snow
3:15 PM 34.0 °F 26.0 °F 30.0 °F 85% 29.77 in 3.0 mi WNW 10.4 mph 26.5 mph 0.01 in Snow Light Snow
3:40 PM 33.1 °F 23.9 °F 30.0 °F 89% 29.78 in 1.8 mi WNW 12.7 mph 19.6 mph 0.01 in Snow Light Snow
3:48 PM 33.8 °F 25.3 °F 30.2 °F 87% 29.79 in 1.2 mi WNW 11.5 mph 19.6 mph 0.01 in Snow Light Snow
3:53 PM 32.0 °F 22.1 °F 30.0 °F 92% 29.81 in 0.8 mi WNW 13.8 mph 25.3 mph 0.01 in Snow Light Snow
4:03 PM 32.0 °F 23.0 °F 30.0 °F 92% 29.79 in 0.5 mi West 11.5 mph 20.7 mph 0.02 in Fog , Snow Light Snow
4:26 PM 30.9 °F 20.7 °F 28.0 °F 89% 29.81 in 1.0 mi WNW 13.8 mph 27.6 mph 0.03 in Snow Light Snow
4:33 PM 30.9 °F 22.2 °F 28.0 °F 89% 29.81 in 2.0 mi West 10.4 mph 24.2 mph 0.03 in Snow Light Snow
4:38 PM 30.0 °F 18.7 °F 28.0 °F 92% 29.82 in 3.0 mi West 16.1 mph 23.0 mph 0.03 in Snow Light Snow
4:53 PM 28.9 °F 17.7 °F 26.1 °F 89% 29.86 in 3.0 mi West 15.0 mph 28.8 mph 0.03 in Snow Light Snow
5:00 PM 28.9 °F 17.3 °F 26.1 °F 89% 29.84 in 2.0 mi West 16.1 mph 29.9 mph 0.00 in Snow Light Snow
5:04 PM 28.0 °F 18.1 °F 25.0 °F 88% 29.84 in 1.5 mi WNW 11.5 mph 29.9 mph 0.00 in Snow Light Snow
5:21 PM 28.0 °F 17.0 °F 25.0 °F 88% 29.85 in 2.0 mi WNW 13.8 mph 23.0 mph 0.01 in Snow Light Snow
5:35 PM 27.0 °F 16.7 °F 23.0 °F 85% 29.86 in 6.0 mi WNW 11.5 mph 26.5 mph 0.01 in Snow Light Snow
5:53 PM 25.0 °F 13.1 °F 21.9 °F 88% 29.91 in 2.0 mi West 13.8 mph 23.0 mph 0.01 in Snow Light Snow
5:55 PM 25.0 °F 14.2 °F 21.9 °F 88% 29.88 in 1.5 mi West 11.5 mph 23.0 mph 0.00 in Snow Light Snow
6:06 PM 24.1 °F 12.0 °F 21.0 °F 88% 29.89 in 2.0 mi WNW 13.8 mph 24.2 mph 0.00 in Snow Light Snow
6:24 PM 23.0 °F 11.7 °F 19.9 °F 88% 29.90 in 1.5 mi West 11.5 mph 28.8 mph 0.00 in Snow Light Snow
6:34 PM 21.9 °F 9.8 °F 19.0 °F 89% 29.91 in 0.8 mi West 12.7 mph 26.5 mph 0.01 in Snow Light Snow
6:38 PM 21.9 °F 8.7 °F 19.0 °F 89% 29.91 in 1.0 mi WNW 15.0 mph 24.2 mph 0.01 in Snow Light Snow
6:43 PM 21.9 °F 9.2 °F 17.1 °F 82% 29.91 in 1.8 mi WNW 13.8 mph 25.3 mph 0.01 in Snow Light Snow
6:46 PM 21.9 °F 8.2 °F 17.1 °F 82% 29.92 in 2.0 mi WNW 16.1 mph 25.3 mph 0.01 in Snow Light Snow
6:53 PM 21.0 °F 7.1 °F 17.1 °F 85% 29.96 in 2.0 mi West 16.1 mph 27.6 mph 0.01 in Snow Light Snow
6:55 PM 21.0 °F 10.6 °F 17.1 °F 85% 29.92 in 1.5 mi West 9.2 mph 27.6 mph 0.00 in Snow Light Snow
7:07 PM 21.0 °F 7.1 °F 16.0 °F 81% 29.93 in 2.0 mi WNW 16.1 mph 27.6 mph 0.00 in Snow Light Snow
7:19 PM 19.9 °F 6.2 °F 14.0 °F 78% 29.94 in 6.0 mi WNW 15.0 mph 28.8 mph 0.01 in Snow Light Snow
7:33 PM 19.9 °F 8.6 °F 15.1 °F 81% 29.96 in 1.8 mi WNW 10.4 mph 24.2 mph 0.01 in Snow Light Snow
7:40 PM 19.9 °F 9.3 °F 15.1 °F 81% 29.97 in 1.0 mi WNW 9.2 mph 20.7 mph 0.01 in Snow Light Snow
7:49 PM 19.4 °F 6.6 °F 15.8 °F 86% 29.98 in 0.8 mi NW 12.7 mph 20.7 mph 0.01 in Snow Light Snow
7:53 PM 19.0 °F 4.5 °F 15.1 °F 85% 30.02 in 0.8 mi NW 16.1 mph 23.0 mph 0.01 in Snow Light Snow
8:04 PM 19.0 °F 5.6 °F 12.9 °F 77% 29.98 in 1.8 mi NW 13.8 mph 24.2 mph 0.00 in Snow Light Snow
8:08 PM 18.0 °F 3.6 °F 12.0 °F 78% 29.99 in 3.0 mi NW 15.0 mph 24.2 mph 0.00 in Snow Light Snow
8:27 PM 18.0 °F 4.8 °F 12.0 °F 78% 30.00 in 5.0 mi WNW 12.7 mph 23.0 mph 0.00 in Snow Light Snow
8:41 PM 18.0 °F 5.4 °F 12.0 °F 78% 30.01 in 2.5 mi NW 11.5 mph 21.9 mph 0.00 in Snow Light Snow
8:46 PM 17.1 °F 3.6 °F 12.0 °F 81% 30.02 in 1.5 mi NW 12.7 mph 21.9 mph 0.00 in Snow Light Snow
8:50 PM 17.6 °F 5.7 °F 10.4 °F 73% 30.02 in 2.0 mi NW 10.4 mph 21.9 mph 0.00 in Snow Light Snow
8:53 PM 17.1 °F 3.0 °F 10.9 °F 77% 30.06 in 2.0 mi NW 13.8 mph 19.6 mph 0.00 in Snow Light Snow
8:59 PM 17.1 °F 3.6 °F 12.0 °F 81% 30.03 in 1.8 mi West 12.7 mph 19.6 mph 0.00 in Snow Light Snow
9:01 PM 17.1 °F 3.0 °F 12.0 °F 81% 30.03 in 1.5 mi WNW 13.8 mph 19.6 mph 0.00 in Snow Light Snow
9:15 PM 17.1 °F 5.0 °F 12.0 °F 81% 30.04 in 1.8 mi WNW 10.4 mph 19.6 mph 0.00 in Snow Light Snow
9:53 PM 16.0 °F 5.3 °F 10.9 °F 81% 30.09 in 1.0 mi NW 8.1 mph 17.3 mph 0.00 in Snow Light Snow
9:56 PM 16.0 °F 3.6 °F 12.0 °F 84% 30.06 in 0.8 mi NW 10.4 mph 18.4 mph 0.01 in Snow Light Snow
10:13 PM 16.0 °F 2.9 °F 10.9 °F 81% 30.07 in 1.2 mi NW 11.5 mph 20.7 mph 0.01 in Snow Light Snow
10:35 PM 15.1 °F 1.8 °F 10.0 °F 80% 30.09 in 1.5 mi NW 11.5 mph 24.2 mph 0.02 in Snow Light Snow
10:53 PM 15.1 °F -0.6 °F 10.9 °F 84% 30.13 in 1.0 mi NW 16.1 mph 24.2 mph 0.02 in Snow Light Snow
11:03 PM 15.1 °F 2.5 °F 9.0 °F 77% 30.10 in 2.0 mi NW 10.4 mph 21.9 mph 0.00 in Snow Light Snow
11:18 PM 14.0 °F 3.9 °F 9.0 °F 80% 30.11 in 3.0 mi Variable 6.9 mph 17.3 mph 0.00 in Snow Light Snow
11:34 PM 14.0 °F 2.0 °F 8.1 °F 77% 30.12 in 2.0 mi NNW 9.2 mph 20.7 mph 0.00 in Snow Light Snow
11:53 PM 14.0 °F 3.9 °F 8.1 °F 77% 30.17 in 2.0 mi Variable 6.9 mph - 0.00 in Snow Light Snow